Time,TemperatureF,DewpointF,PressureIn,WindDirection,WindDirectionDegrees,WindSpeedMPH,WindSpeedGustMPH,Humidity,HourlyPrecipIn,Conditions,Clouds,dailyrainin,SolarRadiationWatts/m^2,SoftwareType,DateUTC
2013-01-23 00:00:00,14.1,-2.4,30.20,NNW,328,0.0,4.0,47,0.00,,,0.00,0,LWC V2.00 B2112,2013-01-23 05:00:00,
2013-01-23 00:01:00,14.1,-2.4,30.20,NNW,328,1.0,4.0,47,0.00,,,0.00,0,LWC V2.00 B2112,2013-01-23 05:01:00,
2013-01-23 00:06:00,14.0,-2.5,30.20,NNW,328,0.0,4.0,47,0.00,,,0.00,0,LWC V2.00 B2112,2013-01-23 05:06:00,
2013-01-23 00:11:00,14.0,-2.5,30.20,NNW,341,2.0,6.0,47,0.00,,,0.00,0,LWC V2.00 B2112,2013-01-23 05:11:00,
2013-01-23 00:16:00,14.0,-2.9,30.20,NNW,341,1.0,4.0,46,0.00,,,0.00,0,LWC V2.00 B2112,2013-01-23 05:16:00,
2013-01-23 00:21:00,13.9,-3.0,30.19,NNW,341,0.0,4.0,46,0.00,,,0.00,0,LWC V2.00 B2112,2013-01-23 05:21:00,
2013-01-23 00:26:00,13.9,-3.0,30.19,NNW,341,0.0,3.0,46,0.00,,,0.00,0,LWC V2.00 B2112,2013-01-23 05:26:00,
2013-01-23 00:31:00,13.8,-3.6,30.19,South,187,0.0,3.0,45,0.00,,,0.00,0,LWC V2.00 B2112,2013-01-23 05:31:00,
2013-01-23 00:36:00,13.8,-3.6,30.19,SSW,210,0.0,1.0,45,0.00,,,0.00,0,LWC V2.00 B2112,2013-01-23 05:36:00,
2013-01-23 00:41:00,13.7,-2.8,30.19,WNW,286,1.0,2.0,47,0.00,,,0.00,0,LWC V2.00 B2112,2013-01-23 05:41:00,
2013-01-23 00:46:00,13.7,-2.3,30.19,NNW,341,2.0,2.0,48,0.00,,,0.00,0,LWC V2.00 B2112,2013-01-23 05:46:00,
2013-01-23 00:51:00,13.6,-2.4,30.19,NNW,341,0.0,3.0,48,0.00,,,0.00,0,LWC V2.00 B2112,2013-01-23 05:51:00,
2013-01-23 00:56:00,13.6,-2.0,30.19,NNW,341,1.0,3.0,49,0.00,,,0.00,0,LWC V2.00 B2112,2013-01-23 05:56:00,
2013-01-23 01:01:00,13.5,-2.9,30.19,NNW,341,1.0,1.0,47,0.00,,,0.00,0,LWC V2.00 B2112,2013-01-23 06:01:00,
2013-01-23 01:06:00,13.5,-2.5,30.19,NNW,341,0.0,1.0,48,0.00,,,0.00,0,LWC V2.00 B2112,2013-01-23 06:06:00,
2013-01-23 01:11:00,13.4,-2.6,30.20,NNW,341,0.0,1.0,48,0.00,,,0.00,0,LWC V2.00 B2112,2013-01-23 06:11:00,
2013-01-23 01:16:00,13.4,-1.7,30.20,NNW,341,1.0,2.0,50,0.00,,,0.00,0,LWC V2.00 B2112,2013-01-23 06:16:00,
2013-01-23 01:21:00,13.4,-2.2,30.20,NNW,341,1.0,1.0,49,0.00,,,0.00,0,LWC V2.00 B2112,2013-01-23 06:21:00,
2013-01-23 01:26:00,13.3,-1.8,30.20,NW,324,0.0,1.0,50,0.00,,,0.00,0,LWC V2.00 B2112,2013-01-23 06:26:00,
2013-01-23 01:31:00,13.2,-1.9,30.20,NW,324,1.0,3.0,50,0.00,,,0.00,0,LWC V2.00 B2112,2013-01-23 06:31:00,
2013-01-23 01:36:00,13.2,-2.3,30.20,NW,320,0.0,2.0,49,0.00,,,0.00,0,LWC V2.00 B2112,2013-01-23 06:36:00,
2013-01-23 01:41:00,13.1,-2.0,30.20,NW,320,2.0,3.0,50,0.00,,,0.00,0,LWC V2.00 B2112,2013-01-23 06:41:00,
2013-01-23 01:47:00,13.1,-2.4,30.20,NW,320,2.0,3.0,49,0.00,,,0.00,0,LWC V2.00 B2112,2013-01-23 06:47:00,
2013-01-23 01:52:00,13.1,-2.0,30.20,NNW,327,1.0,3.0,50,0.00,,,0.00,0,LWC V2.00 B2112,2013-01-23 06:52:00,
2013-01-23 01:57:00,13.2,-1.9,30.20,NNW,341,0.0,3.0,50,0.00,,,0.00,0,LWC V2.00 B2112,2013-01-23 06:57:00,
2013-01-23 02:02:00,13.2,-1.9,30.20,NNW,341,0.0,2.0,50,0.00,,,0.00,0,LWC V2.00 B2112,2013-01-23 07:02:00,
2013-01-23 02:07:00,13.2,-1.9,30.21,NNW,341,0.0,4.0,50,0.00,,,0.00,0,LWC V2.00 B2112,2013-01-23 07:07:00,
2013-01-23 02:12:00,13.1,-2.4,30.21,NW,306,1.0,4.0,49,0.00,,,0.00,0,LWC V2.00 B2112,2013-01-23 07:12:00,
2013-01-23 02:17:00,13.1,-2.0,30.21,NW,306,2.0,2.0,50,0.00,,,0.00,0,LWC V2.00 B2112,2013-01-23 07:17:00,
2013-01-23 02:22:00,13.1,-2.0,30.21,NW,306,1.0,1.0,50,0.00,,,0.00,0,LWC V2.00 B2112,2013-01-23 07:22:00,
2013-01-23 02:27:00,13.1,-1.6,30.21,NNW,337,2.0,3.0,51,0.00,,,0.00,0,LWC V2.00 B2112,2013-01-23 07:27:00,
2013-01-23 02:32:00,13.1,-2.0,30.22,NNW,341,2.0,3.0,50,0.00,,,0.00,0,LWC V2.00 B2112,2013-01-23 07:32:00,
2013-01-23 02:37:00,13.1,-1.6,30.21,NNW,341,0.0,1.0,51,0.00,,,0.00,0,LWC V2.00 B2112,2013-01-23 07:37:00,
2013-01-23 02:42:00,13.1,-1.6,30.22,NNW,341,0.0,2.0,51,0.00,,,0.00,0,LWC V2.00 B2112,2013-01-23 07:42:00,
2013-01-23 02:47:00,13.1,-1.6,30.22,NNW,338,0.0,1.0,51,0.00,,,0.00,0,LWC V2.00 B2112,2013-01-23 07:47:00,
2013-01-23 02:52:00,13.1,-1.6,30.22,NNW,341,0.0,2.0,51,0.00,,,0.00,0,LWC V2.00 B2112,2013-01-23 07:52:00,
2013-01-23 02:57:00,13.0,-1.3,30.22,NNW,341,0.0,1.0,52,0.00,,,0.00,0,LWC V2.00 B2112,2013-01-23 07:57:00,
2013-01-23 03:02:00,13.0,-1.3,30.21,NNW,341,0.0,0.0,52,0.00,,,0.00,0,LWC V2.00 B2112,2013-01-23 08:02:00,
2013-01-23 03:07:00,13.0,-0.9,30.21,NNW,341,0.0,1.0,53,0.00,,,0.00,0,LWC V2.00 B2112,2013-01-23 08:07:00,
2013-01-23 03:12:00,12.9,-1.0,30.21,NNW,341,0.0,1.0,53,0.00,,,0.00,0,LWC V2.00 B2112,2013-01-23 08:12:00,
2013-01-23 03:17:00,12.9,-0.6,30.21,NNW,341,0.0,0.0,54,0.00,,,0.00,0,LWC V2.00 B2112,2013-01-23 08:17:00,
2013-01-23 03:22:00,12.8,-0.7,30.21,NNW,341,1.0,2.0,54,0.00,,,0.00,0,LWC V2.00 B2112,2013-01-23 08:22:00,
2013-01-23 03:27:00,12.8,-1.1,30.21,NNW,338,0.0,0.0,53,0.00,,,0.00,0,LWC V2.00 B2112,2013-01-23 08:27:00,
2013-01-23 03:32:00,12.7,-0.8,30.21,NW,315,0.0,1.0,54,0.00,,,0.00,0,LWC V2.00 B2112,2013-01-23 08:32:00,
2013-01-23 03:37:00,12.7,-0.4,30.21,NW,316,0.0,1.0,55,0.00,,,0.00,0,LWC V2.00 B2112,2013-01-23 08:37:00,
2013-01-23 03:42:00,12.7,-0.4,30.21,NW,316,0.0,3.0,55,0.00,,,0.00,0,LWC V2.00 B2112,2013-01-23 08:42:00,
2013-01-23 03:47:00,12.7,-0.4,30.21,NW,316,0.0,1.0,55,0.00,,,0.00,0,LWC V2.00 B2112,2013-01-23 08:47:00,
2013-01-23 03:52:00,12.7,-0.8,30.21,NW,316,0.0,3.0,54,0.00,,,0.00,0,LWC V2.00 B2112,2013-01-23 08:52:00,
2013-01-23 03:57:00,12.7,-0.8,30.21,NW,316,0.0,1.0,54,0.00,,,0.00,0,LWC V2.00 B2112,2013-01-23 08:57:00,
2013-01-23 04:02:00,12.6,-0.5,30.21,NW,316,0.0,2.0,55,0.00,,,0.00,0,LWC V2.00 B2112,2013-01-23 09:02:00,
2013-01-23 04:07:00,12.6,-0.5,30.21,NW,316,0.0,0.0,55,0.00,,,0.00,0,LWC V2.00 B2112,2013-01-23 09:07:00,
2013-01-23 04:12:00,12.5,-0.6,30.21,NW,309,1.0,1.0,55,0.00,,,0.00,0,LWC V2.00 B2112,2013-01-23 09:12:00,
2013-01-23 04:17:00,12.4,-0.3,30.21,NW,307,0.0,1.0,56,0.00,,,0.00,0,LWC V2.00 B2112,2013-01-23 09:17:00,
2013-01-23 04:22:00,12.4,-0.3,30.21,NNW,341,0.0,4.0,56,0.00,,,0.00,0,LWC V2.00 B2112,2013-01-23 09:22:00,
2013-01-23 04:27:00,12.3,0.0,30.21,NNW,341,0.0,1.0,57,0.00,,,0.00,0,LWC V2.00 B2112,2013-01-23 09:27:00,
2013-01-23 04:32:00,12.3,0.0,30.21,NNW,341,1.0,1.0,57,0.00,,,0.00,0,LWC V2.00 B2112,2013-01-23 09:32:00,
2013-01-23 04:37:00,12.2,-0.1,30.21,NNW,341,0.0,1.0,57,0.00,,,0.00,0,LWC V2.00 B2112,2013-01-23 09:37:00,
2013-01-23 04:42:00,12.1,-0.2,30.21,NNW,341,0.0,1.0,57,0.00,,,0.00,0,LWC V2.00 B2112,2013-01-23 09:42:00,
2013-01-23 04:47:00,12.1,0.2,30.21,NNW,341,0.0,0.0,58,0.00,,,0.00,0,LWC V2.00 B2112,2013-01-23 09:47:00,
2013-01-23 04:52:00,12.1,-0.2,30.21,NNW,341,0.0,2.0,57,0.00,,,0.00,0,LWC V2.00 B2112,2013-01-23 09:52:00,
2013-01-23 04:57:00,12.1,-0.2,30.21,NNW,341,0.0,1.0,57,0.00,,,0.00,0,LWC V2.00 B2112,2013-01-23 09:57:00,
2013-01-23 05:02:00,12.1,-0.2,30.22,NNW,341,0.0,1.0,57,0.00,,,0.00,0,LWC V2.00 B2112,2013-01-23 10:02:00,
2013-01-23 05:07:00,12.0,0.1,30.21,NNW,341,0.0,1.0,58,0.00,,,0.00,0,LWC V2.00 B2112,2013-01-23 10:07:00,
2013-01-23 05:12:00,12.0,0.1,30.22,NNW,341,0.0,1.0,58,0.00,,,0.00,0,LWC V2.00 B2112,2013-01-23 10:12:00,
2013-01-23 05:17:00,11.9,0.0,30.22,SW,219,0.0,2.0,58,0.00,,,0.00,0,LWC V2.00 B2112,2013-01-23 10:17:00,
2013-01-23 05:22:00,11.9,0.0,30.22,WSW,240,0.0,2.0,58,0.00,,,0.00,0,LWC V2.00 B2112,2013-01-23 10:22:00,
2013-01-23 05:27:00,11.9,0.0,30.22,NNW,341,0.0,3.0,58,0.00,,,0.00,0,LWC V2.00 B2112,2013-01-23 10:27:00,
2013-01-23 05:32:00,11.9,0.7,30.22,NNW,341,0.0,0.0,60,0.00,,,0.00,0,LWC V2.00 B2112,2013-01-23 10:32:00,
2013-01-23 05:37:00,11.9,0.7,30.22,NNW,341,0.0,1.0,60,0.00,,,0.00,0,LWC V2.00 B2112,2013-01-23 10:37:00,
2013-01-23 05:42:00,11.9,0.7,30.22,NNW,341,1.0,3.0,60,0.00,,,0.00,0,LWC V2.00 B2112,2013-01-23 10:42:00,
2013-01-23 05:47:00,11.8,0.6,30.22,NNW,341,0.0,0.0,60,0.00,,,0.00,0,LWC V2.00 B2112,2013-01-23 10:47:00,
2013-01-23 05:52:00,11.8,0.6,30.22,NNW,341,0.0,1.0,60,0.00,,,0.00,0,LWC V2.00 B2112,2013-01-23 10:52:00,
2013-01-23 05:57:00,11.8,1.0,30.22,NNW,341,0.0,0.0,61,0.00,,,0.00,0,LWC V2.00 B2112,2013-01-23 10:57:00,
2013-01-23 06:02:00,11.7,0.5,30.22,NNW,341,1.0,1.0,60,0.00,,,0.00,0,LWC V2.00 B2112,2013-01-23 11:02:00,
2013-01-23 06:07:00,11.7,0.5,30.22,NNW,341,0.0,1.0,60,0.00,,,0.00,0,LWC V2.00 B2112,2013-01-23 11:07:00,
2013-01-23 06:12:00,11.6,0.4,30.22,NNW,328,1.0,2.0,60,0.00,,,0.00,0,LWC V2.00 B2112,2013-01-23 11:12:00,
2013-01-23 06:17:00,11.7,0.5,30.22,NNW,337,0.0,1.0,60,0.00,,,0.00,0,LWC V2.00 B2112,2013-01-23 11:17:00,
2013-01-23 06:22:00,11.7,0.9,30.22,NNW,340,0.0,1.0,61,0.00,,,0.00,0,LWC V2.00 B2112,2013-01-23 11:22:00,
2013-01-23 06:27:00,11.7,0.9,30.22,NNW,327,1.0,2.0,61,0.00,,,0.00,0,LWC V2.00 B2112,2013-01-23 11:27:00,
2013-01-23 06:32:00,11.6,0.8,30.22,WSW,254,0.0,1.0,61,0.00,,,0.00,0,LWC V2.00 B2112,2013-01-23 11:32:00,
2013-01-23 06:37:00,11.6,0.8,30.23,WSW,254,0.0,0.0,61,0.00,,,0.00,0,LWC V2.00 B2112,2013-01-23 11:37:00,
2013-01-23 06:42:00,11.6,0.8,30.23,West,267,0.0,1.0,61,0.00,,,0.00,0,LWC V2.00 B2112,2013-01-23 11:42:00,
2013-01-23 06:47:00,11.6,1.1,30.23,West,267,0.0,1.0,62,0.00,,,0.00,0,LWC V2.00 B2112,2013-01-23 11:47:00,
2013-01-23 06:52:00,11.5,1.4,30.23,West,267,0.0,1.0,63,0.00,,,0.00,0,LWC V2.00 B2112,2013-01-23 11:52:00,
2013-01-23 06:57:00,11.5,1.7,30.23,West,267,0.0,0.0,64,0.00,,,0.00,0,LWC V2.00 B2112,2013-01-23 11:57:00,
2013-01-23 07:02:00,11.4,1.6,30.23,West,267,0.0,0.0,64,0.00,,,0.00,0,LWC V2.00 B2112,2013-01-23 12:02:00,
2013-01-23 07:07:00,11.4,1.3,30.23,West,263,0.0,1.0,63,0.00,,,0.00,0,LWC V2.00 B2112,2013-01-23 12:07:00,
2013-01-23 07:12:00,11.4,1.6,30.23,NW,326,0.0,1.0,64,0.00,,,0.00,0,LWC V2.00 B2112,2013-01-23 12:12:00,
2013-01-23 07:17:00,11.3,1.5,30.23,NW,326,0.0,0.0,64,0.00,,,0.00,0,LWC V2.00 B2112,2013-01-23 12:17:00,
2013-01-23 07:22:00,11.3,1.2,30.23,NW,326,0.0,1.0,63,0.00,,,0.00,0,LWC V2.00 B2112,2013-01-23 12:22:00,
2013-01-23 07:27:00,11.3,1.5,30.23,NW,326,0.0,1.0,64,0.00,,,0.00,0,LWC V2.00 B2112,2013-01-23 12:27:00,
2013-01-23 07:32:00,11.3,1.5,30.23,NW,326,0.0,1.0,64,0.00,,,0.00,0,LWC V2.00 B2112,2013-01-23 12:32:00,
2013-01-23 07:37:00,11.4,2.0,30.23,NW,326,0.0,1.0,65,0.00,,,0.00,5,LWC V2.00 B2112,2013-01-23 12:37:00,
2013-01-23 07:42:00,11.5,1.7,30.23,NW,326,1.0,1.0,64,0.00,,,0.00,5,LWC V2.00 B2112,2013-01-23 12:42:00,
2013-01-23 07:47:00,11.6,1.8,30.23,NW,326,1.0,1.0,64,0.00,,,0.00,5,LWC V2.00 B2112,2013-01-23 12:47:00,
2013-01-23 07:52:00,11.8,2.0,30.23,NW,324,0.0,1.0,64,0.00,,,0.00,7,LWC V2.00 B2112,2013-01-23 12:52:00,
2013-01-23 07:57:00,12.0,1.9,30.23,NW,325,0.0,3.0,63,0.00,,,0.00,7,LWC V2.00 B2112,2013-01-23 12:57:00,
2013-01-23 08:02:00,12.2,2.0,30.23,NW,324,0.0,3.0,63,0.00,,,0.00,9,LWC V2.00 B2112,2013-01-23 13:02:00,
2013-01-23 08:07:00,12.3,1.8,30.23,NW,322,1.0,2.0,62,0.00,,,0.00,11,LWC V2.00 B2112,2013-01-23 13:07:00,
2013-01-23 08:12:00,12.6,2.4,30.24,NW,323,1.0,2.0,63,0.00,,,0.00,12,LWC V2.00 B2112,2013-01-23 13:12:00,
2013-01-23 08:17:00,13.0,2.1,30.24,NNW,329,0.0,1.0,61,0.00,,,0.00,14,LWC V2.00 B2112,2013-01-23 13:17:00,
2013-01-23 08:22:00,13.4,2.1,30.23,NNW,329,1.0,2.0,60,0.00,,,0.00,16,LWC V2.00 B2112,2013-01-23 13:22:00,
2013-01-23 08:27:00,13.7,2.8,30.24,NNW,340,0.0,2.0,61,0.00,,,0.00,16,LWC V2.00 B2112,2013-01-23 13:27:00,
2013-01-23 08:32:00,14.3,3.0,30.24,NNW,340,0.0,1.0,60,0.00,,,0.00,18,LWC V2.00 B2112,2013-01-23 13:32:00,
2013-01-23 08:37:00,14.8,3.1,30.23,NNW,340,0.0,2.0,59,0.00,,,0.00,18,LWC V2.00 B2112,2013-01-23 13:37:00,
2013-01-23 08:42:00,15.2,3.5,30.24,NNW,340,1.0,4.0,59,0.00,,,0.00,18,LWC V2.00 B2112,2013-01-23 13:42:00,
2013-01-23 08:47:00,15.5,3.4,30.23,NNW,340,1.0,3.0,58,0.00,,,0.00,19,LWC V2.00 B2112,2013-01-23 13:47:00,
2013-01-23 08:52:00,15.8,3.3,30.23,NNW,340,1.0,3.0,57,0.00,,,0.00,19,LWC V2.00 B2112,2013-01-23 13:52:00,
2013-01-23 08:57:00,16.0,3.1,30.24,NNW,340,2.0,3.0,56,0.00,,,0.00,21,LWC V2.00 B2112,2013-01-23 13:57:00,
2013-01-23 09:02:00,16.1,3.2,30.24,NNW,331,2.0,5.0,56,0.00,,,0.00,21,LWC V2.00 B2112,2013-01-23 14:02:00,
2013-01-23 09:07:00,16.2,3.3,30.24,NNW,333,1.0,3.0,56,0.00,,,0.00,21,LWC V2.00 B2112,2013-01-23 14:07:00,
2013-01-23 09:12:00,16.4,3.5,30.24,NNW,333,2.0,3.0,56,0.00,,,0.00,21,LWC V2.00 B2112,2013-01-23 14:12:00,
2013-01-23 09:17:00,16.4,3.5,30.24,NNW,340,1.0,3.0,56,0.00,,,0.00,21,LWC V2.00 B2112,2013-01-23 14:17:00,
2013-01-23 09:22:00,16.5,3.2,30.24,NW,318,1.0,5.0,55,0.00,,,0.00,21,LWC V2.00 B2112,2013-01-23 14:22:00,
2013-01-23 09:27:00,16.5,3.2,30.24,NNW,340,0.0,6.0,55,0.00,,,0.00,19,LWC V2.00 B2112,2013-01-23 14:27:00,
2013-01-23 09:32:00,16.4,2.7,30.24,NNW,332,1.0,2.0,54,0.00,,,0.00,19,LWC V2.00 B2112,2013-01-23 14:32:00,
2013-01-23 09:37:00,16.6,3.3,30.24,NNW,332,1.0,1.0,55,0.00,,,0.00,19,LWC V2.00 B2112,2013-01-23 14:37:00,
2013-01-23 09:42:00,16.7,3.0,30.25,SSW,196,0.0,3.0,54,0.00,,,0.00,19,LWC V2.00 B2112,2013-01-23 14:42:00,
2013-01-23 09:47:00,16.7,3.4,30.25,West,271,2.0,2.0,55,0.00,,,0.00,19,LWC V2.00 B2112,2013-01-23 14:47:00,
2013-01-23 09:52:00,16.9,3.6,30.24,West,278,0.0,4.0,55,0.00,,,0.00,19,LWC V2.00 B2112,2013-01-23 14:52:00,
2013-01-23 09:57:00,17.2,3.4,30.25,West,267,0.0,1.0,54,0.00,,,0.00,21,LWC V2.00 B2112,2013-01-23 14:57:00,
2013-01-23 10:02:00,17.6,3.4,30.24,WNW,298,1.0,3.0,53,0.00,,,0.00,19,LWC V2.00 B2112,2013-01-23 15:02:00,
2013-01-23 10:07:00,17.8,2.3,30.25,NNW,337,1.0,4.0,50,0.00,,,0.00,19,LWC V2.00 B2112,2013-01-23 15:07:00,
2013-01-23 10:12:00,17.7,1.8,30.25,SSW,209,2.0,8.0,49,0.00,,,0.00,19,LWC V2.00 B2112,2013-01-23 15:12:00,
2013-01-23 10:17:00,17.6,1.3,30.25,SSE,165,3.0,7.0,48,0.00,,,0.00,19,LWC V2.00 B2112,2013-01-23 15:17:00,
2013-01-23 10:22:00,17.6,1.7,30.25,NW,319,5.0,5.0,49,0.00,,,0.00,19,LWC V2.00 B2112,2013-01-23 15:22:00,
2013-01-23 10:27:00,17.5,1.2,30.25,NNW,340,0.0,4.0,48,0.00,,,0.00,19,LWC V2.00 B2112,2013-01-23 15:27:00,
2013-01-23 10:32:00,17.6,2.2,30.24,NNW,331,0.0,1.0,50,0.00,,,0.00,21,LWC V2.00 B2112,2013-01-23 15:32:00,
2013-01-23 10:37:00,18.0,2.1,30.24,NNW,336,5.0,5.0,49,0.00,,,0.00,21,LWC V2.00 B2112,2013-01-23 15:37:00,
2013-01-23 10:42:00,18.2,0.9,30.24,NNW,341,1.0,6.0,46,0.00,,,0.00,25,LWC V2.00 B2112,2013-01-23 15:42:00,
2013-01-23 10:46:00,18.4,1.6,30.24,NNW,341,0.0,1.0,47,0.00,,,0.00,23,LWC V2.00 B2112,2013-01-23 15:46:00,
2013-01-23 10:51:00,18.8,1.9,30.24,NNW,338,0.0,4.0,47,0.00,,,0.00,28,LWC V2.00 B2112,2013-01-23 15:51:00,
2013-01-23 10:56:00,19.2,1.9,30.23,NNW,331,2.0,3.0,46,0.00,,,0.00,26,LWC V2.00 B2112,2013-01-23 15:56:00,
2013-01-23 11:01:00,19.4,1.6,30.23,NNW,328,1.0,4.0,45,0.00,,,0.00,30,LWC V2.00 B2112,2013-01-23 16:01:00,
2013-01-23 11:06:00,19.4,1.1,30.23,NNW,341,4.0,6.0,44,0.00,,,0.00,32,LWC V2.00 B2112,2013-01-23 16:06:00,
2013-01-23 11:11:00,19.4,1.1,30.23,West,262,0.0,6.0,44,0.00,,,0.00,44,LWC V2.00 B2112,2013-01-23 16:11:00,
2013-01-23 11:16:00,19.3,0.5,30.22,SSW,198,4.0,5.0,43,0.00,,,0.00,26,LWC V2.00 B2112,2013-01-23 16:16:00,
2013-01-23 11:21:00,19.3,0.5,30.22,South,185,1.0,4.0,43,0.00,,,0.00,47,LWC V2.00 B2112,2013-01-23 16:21:00,
2013-01-23 11:26:00,19.4,0.1,30.22,SSW,210,2.0,11.0,42,0.00,,,0.00,46,LWC V2.00 B2112,2013-01-23 16:26:00,
2013-01-23 11:31:00,19.1,-0.2,30.22,SW,230,2.0,7.0,42,0.00,,,0.00,33,LWC V2.00 B2112,2013-01-23 16:31:00,
2013-01-23 11:36:00,18.9,-0.4,30.21,SW,216,0.0,1.0,42,0.00,,,0.00,47,LWC V2.00 B2112,2013-01-23 16:36:00,
2013-01-23 11:41:00,19.1,0.8,30.21,NNE,21,1.0,6.0,44,0.00,,,0.00,53,LWC V2.00 B2112,2013-01-23 16:41:00,
2013-01-23 11:46:00,19.2,0.4,30.20,WNW,288,2.0,4.0,43,0.00,,,0.00,49,LWC V2.00 B2112,2013-01-23 16:46:00,
2013-01-23 11:51:00,19.2,-0.1,30.20,West,264,1.0,2.0,42,0.00,,,0.00,49,LWC V2.00 B2112,2013-01-23 16:51:00,
2013-01-23 11:56:00,19.8,1.0,30.20,NNW,341,2.0,5.0,43,0.00,,,0.00,40,LWC V2.00 B2112,2013-01-23 16:56:00,
2013-01-23 12:01:00,19.8,1.0,30.20,WSW,251,3.0,5.0,43,0.00,,,0.00,40,LWC V2.00 B2112,2013-01-23 17:01:00,
2013-01-23 12:06:00,19.5,0.7,30.19,WSW,245,2.0,3.0,43,0.00,,,0.00,40,LWC V2.00 B2112,2013-01-23 17:06:00,
2013-01-23 12:11:00,19.4,0.1,30.19,SSW,201,2.0,2.0,42,0.00,,,0.00,39,LWC V2.00 B2112,2013-01-23 17:11:00,
2013-01-23 12:16:00,19.4,-0.4,30.19,South,186,1.0,2.0,41,0.00,,,0.00,32,LWC V2.00 B2112,2013-01-23 17:16:00,
2013-01-23 12:21:00,19.3,-0.5,30.19,SW,223,3.0,5.0,41,0.00,,,0.00,26,LWC V2.00 B2112,2013-01-23 17:21:00,
2013-01-23 12:26:00,19.1,-0.2,30.18,West,265,3.0,4.0,42,0.00,,,0.00,26,LWC V2.00 B2112,2013-01-23 17:26:00,
2013-01-23 12:31:00,19.1,-0.2,30.18,South,180,1.0,8.0,42,0.00,,,0.00,32,LWC V2.00 B2112,2013-01-23 17:31:00,
2013-01-23 12:36:00,19.3,0.5,30.18,SW,234,3.0,4.0,43,0.00,,,0.00,37,LWC V2.00 B2112,2013-01-23 17:36:00,
2013-01-23 12:41:00,19.7,0.4,30.18,SSE,153,0.0,7.0,42,0.00,,,0.00,33,LWC V2.00 B2112,2013-01-23 17:41:00,
2013-01-23 12:46:00,19.7,1.4,30.18,NE,40,3.0,3.0,44,0.00,,,0.00,26,LWC V2.00 B2112,2013-01-23 17:46:00,
2013-01-23 12:51:00,19.5,0.2,30.17,NNW,341,2.0,5.0,42,0.00,,,0.00,25,LWC V2.00 B2112,2013-01-23 17:51:00,
2013-01-23 12:56:00,19.5,0.7,30.17,NNW,341,2.0,3.0,43,0.00,,,0.00,28,LWC V2.00 B2112,2013-01-23 17:56:00,
2013-01-23 13:01:00,19.7,0.4,30.17,NNW,335,0.0,6.0,42,0.00,,,0.00,28,LWC V2.00 B2112,2013-01-23 18:01:00,
2013-01-23 13:06:00,19.9,0.6,30.17,NNW,341,0.0,4.0,42,0.00,,,0.00,46,LWC V2.00 B2112,2013-01-23 18:06:00,
2013-01-23 13:11:00,20.2,0.8,30.17,SSW,198,1.0,3.0,42,0.00,,,0.00,46,LWC V2.00 B2112,2013-01-23 18:11:00,
2013-01-23 13:16:00,20.2,1.3,30.16,NW,321,1.0,3.0,43,0.00,,,0.00,42,LWC V2.00 B2112,2013-01-23 18:16:00,
2013-01-23 13:21:00,20.1,0.7,30.17,NW,319,2.0,6.0,42,0.00,,,0.00,30,LWC V2.00 B2112,2013-01-23 18:21:00,
2013-01-23 13:26:00,19.7,0.4,30.17,NW,326,2.0,4.0,42,0.00,,,0.00,37,LWC V2.00 B2112,2013-01-23 18:26:00,
2013-01-23 13:31:00,19.7,1.8,30.16,WNW,283,1.0,5.0,45,0.00,,,0.00,37,LWC V2.00 B2112,2013-01-23 18:31:00,
2013-01-23 13:36:00,19.9,2.0,30.16,NNW,327,2.0,3.0,45,0.00,,,0.00,46,LWC V2.00 B2112,2013-01-23 18:36:00,
2013-01-23 13:41:00,20.0,1.6,30.16,NW,326,0.0,4.0,44,0.00,,,0.00,37,LWC V2.00 B2112,2013-01-23 18:41:00,
2013-01-23 13:46:00,20.0,2.1,30.16,NNW,327,1.0,1.0,45,0.00,,,0.00,40,LWC V2.00 B2112,2013-01-23 18:46:00,
2013-01-23 13:51:00,20.2,2.3,30.16,NNE,24,0.0,6.0,45,0.00,,,0.00,37,LWC V2.00 B2112,2013-01-23 18:51:00,
2013-01-23 13:56:00,20.3,2.4,30.16,NE,51,1.0,5.0,45,0.00,,,0.00,46,LWC V2.00 B2112,2013-01-23 18:56:00,
2013-01-23 14:01:00,20.8,2.8,30.16,NNE,32,1.0,4.0,45,0.00,,,0.00,47,LWC V2.00 B2112,2013-01-23 19:01:00,
2013-01-23 14:06:00,21.3,2.8,30.16,West,269,1.0,5.0,44,0.00,,,0.00,35,LWC V2.00 B2112,2013-01-23 19:06:00,
2013-01-23 14:11:00,21.2,3.2,30.16,NNW,333,1.0,3.0,45,0.00,,,0.00,33,LWC V2.00 B2112,2013-01-23 19:11:00,
2013-01-23 14:16:00,21.0,3.0,30.16,NW,319,1.0,3.0,45,0.00,,,0.00,23,LWC V2.00 B2112,2013-01-23 19:16:00,
2013-01-23 14:21:00,20.8,2.4,30.16,NNW,341,1.0,1.0,44,0.00,,,0.00,23,LWC V2.00 B2112,2013-01-23 19:21:00,
2013-01-23 14:26:00,20.5,1.6,30.16,SSW,206,4.0,5.0,43,0.00,,,0.00,23,LWC V2.00 B2112,2013-01-23 19:26:00,
2013-01-23 14:31:00,20.2,1.3,30.16,SSW,212,0.0,4.0,43,0.00,,,0.00,26,LWC V2.00 B2112,2013-01-23 19:31:00,
2013-01-23 14:36:00,20.2,1.3,30.16,West,274,2.0,4.0,43,0.00,,,0.00,26,LWC V2.00 B2112,2013-01-23 19:36:00,
2013-01-23 14:41:00,20.5,1.6,30.16,South,186,4.0,8.0,43,0.00,,,0.00,39,LWC V2.00 B2112,2013-01-23 19:41:00,
2013-01-23 14:46:00,20.8,1.9,30.16,NW,315,0.0,3.0,43,0.00,,,0.00,40,LWC V2.00 B2112,2013-01-23 19:46:00,
2013-01-23 14:51:00,21.1,1.6,30.16,South,190,3.0,4.0,42,0.00,,,0.00,42,LWC V2.00 B2112,2013-01-23 19:51:00,
2013-01-23 14:56:00,21.3,0.2,30.16,NNW,331,4.0,6.0,39,0.00,,,0.00,40,LWC V2.00 B2112,2013-01-23 19:56:00,
2013-01-23 15:01:00,21.3,0.2,30.16,NNW,336,3.0,4.0,39,0.00,,,0.00,40,LWC V2.00 B2112,2013-01-23 20:01:00,
2013-01-23 15:06:00,21.3,1.3,30.17,NW,325,1.0,3.0,41,0.00,,,0.00,39,LWC V2.00 B2112,2013-01-23 20:06:00,
2013-01-23 15:11:00,21.4,0.9,30.16,SSW,213,0.0,4.0,40,0.00,,,0.00,32,LWC V2.00 B2112,2013-01-23 20:11:00,
2013-01-23 15:16:00,21.3,1.3,30.17,WNW,294,3.0,4.0,41,0.00,,,0.00,26,LWC V2.00 B2112,2013-01-23 20:16:00,
2013-01-23 15:21:00,20.9,0.4,30.17,NW,317,4.0,5.0,40,0.00,,,0.00,25,LWC V2.00 B2112,2013-01-23 20:21:00,
2013-01-23 15:26:00,20.5,0.1,30.17,South,187,1.0,3.0,40,0.00,,,0.00,21,LWC V2.00 B2112,2013-01-23 20:26:00,
2013-01-23 15:31:00,20.2,0.3,30.17,SSW,200,1.0,5.0,41,0.00,,,0.00,19,LWC V2.00 B2112,2013-01-23 20:31:00,
2013-01-23 15:36:00,19.8,0.5,30.16,NW,323,3.0,3.0,42,0.00,,,0.00,21,LWC V2.00 B2112,2013-01-23 20:36:00,
2013-01-23 15:41:00,19.8,-0.1,30.17,SSW,208,1.0,6.0,41,0.00,,,0.00,16,LWC V2.00 B2112,2013-01-23 20:41:00,
2013-01-23 15:46:00,19.6,0.3,30.16,South,173,0.0,3.0,42,0.00,,,0.00,12,LWC V2.00 B2112,2013-01-23 20:46:00,
2013-01-23 15:51:00,19.5,1.2,30.16,South,184,1.0,3.0,44,0.00,,,0.00,9,LWC V2.00 B2112,2013-01-23 20:51:00,
2013-01-23 15:56:00,19.5,0.7,30.16,NNE,21,3.0,4.0,43,0.00,,,0.00,7,LWC V2.00 B2112,2013-01-23 20:56:00,
2013-01-23 16:01:00,19.4,0.1,30.16,NNE,21,4.0,4.0,42,0.00,,,0.00,7,LWC V2.00 B2112,2013-01-23 21:01:00,
2013-01-23 16:06:00,19.3,0.0,30.16,NNE,21,1.0,1.0,42,0.00,,,0.00,7,LWC V2.00 B2112,2013-01-23 21:06:00,
2013-01-23 16:11:00,19.2,0.4,30.17,NNE,21,2.0,5.0,43,0.00,,,0.00,7,LWC V2.00 B2112,2013-01-23 21:11:00,
2013-01-23 16:16:00,19.0,0.7,30.17,NNE,22,4.0,4.0,44,0.00,,,0.00,7,LWC V2.00 B2112,2013-01-23 21:16:00,
2013-01-23 16:21:00,18.9,0.6,30.17,SSW,197,5.0,5.0,44,0.00,,,0.00,7,LWC V2.00 B2112,2013-01-23 21:21:00,
2013-01-23 16:26:00,18.8,0.5,30.17,SW,229,0.0,4.0,44,0.00,,,0.00,7,LWC V2.00 B2112,2013-01-23 21:26:00,
2013-01-23 16:31:00,18.7,0.4,30.17,SW,227,1.0,1.0,44,0.00,,,0.00,5,LWC V2.00 B2112,2013-01-23 21:31:00,
2013-01-23 16:36:00,18.6,0.4,30.17,SW,225,2.0,5.0,44,0.00,,,0.00,5,LWC V2.00 B2112,2013-01-23 21:36:00,
2013-01-23 16:41:00,18.6,0.4,30.17,SSW,203,1.0,5.0,44,0.00,,,0.00,5,LWC V2.00 B2112,2013-01-23 21:41:00,
2013-01-23 16:46:00,18.6,-0.1,30.17,SSW,209,2.0,4.0,43,0.00,,,0.00,0,LWC V2.00 B2112,2013-01-23 21:46:00,
2013-01-23 16:51:00,18.6,0.4,30.17,SSW,201,1.0,1.0,44,0.00,,,0.00,0,LWC V2.00 B2112,2013-01-23 21:51:00,
2013-01-23 16:56:00,18.5,-0.7,30.17,SW,236,3.0,4.0,42,0.00,,,0.00,0,LWC V2.00 B2112,2013-01-23 21:56:00,
2013-01-23 17:01:00,18.4,-0.8,30.17,WSW,239,2.0,3.0,42,0.00,,,0.00,0,LWC V2.00 B2112,2013-01-23 22:01:00,
2013-01-23 17:06:00,18.3,-0.9,30.17,SSW,200,0.0,3.0,42,0.00,,,0.00,0,LWC V2.00 B2112,2013-01-23 22:06:00,
2013-01-23 17:11:00,18.3,-0.4,30.17,South,189,1.0,4.0,43,0.00,,,0.00,0,LWC V2.00 B2112,2013-01-23 22:11:00,
2013-01-23 17:16:00,18.3,0.1,30.17,South,189,0.0,2.0,44,0.00,,,0.00,0,LWC V2.00 B2112,2013-01-23 22:16:00,
2013-01-23 17:21:00,18.3,-0.4,30.17,SW,215,1.0,5.0,43,0.00,,,0.00,0,LWC V2.00 B2112,2013-01-23 22:21:00,
2013-01-23 17:26:00,18.2,-1.0,30.18,South,177,0.0,2.0,42,0.00,,,0.00,0,LWC V2.00 B2112,2013-01-23 22:26:00,
2013-01-23 17:31:00,18.1,-0.6,30.18,South,186,1.0,3.0,43,0.00,,,0.00,0,LWC V2.00 B2112,2013-01-23 22:31:00,
2013-01-23 17:36:00,18.0,-1.2,30.18,SSW,208,0.0,3.0,42,0.00,,,0.00,0,LWC V2.00 B2112,2013-01-23 22:36:00,
2013-01-23 17:41:00,17.9,-1.3,30.18,SW,217,0.0,1.0,42,0.00,,,0.00,0,LWC V2.00 B2112,2013-01-23 22:41:00,
2013-01-23 17:46:00,17.9,-0.8,30.18,SW,215,0.0,2.0,43,0.00,,,0.00,0,LWC V2.00 B2112,2013-01-23 22:46:00,
2013-01-23 17:51:00,17.8,-0.9,30.19,SW,215,0.0,0.0,43,0.00,,,0.00,0,LWC V2.00 B2112,2013-01-23 22:51:00,
2013-01-23 17:56:00,17.7,-0.5,30.19,SW,215,0.0,0.0,44,0.00,,,0.00,0,LWC V2.00 B2112,2013-01-23 22:56:00,
2013-01-23 18:01:00,17.5,0.3,30.19,NW,323,0.0,2.0,46,0.00,,,0.00,0,LWC V2.00 B2112,2013-01-23 23:01:00,
2013-01-23 18:06:00,17.4,0.2,30.19,NW,323,0.0,1.0,46,0.00,,,0.00,0,LWC V2.00 B2112,2013-01-23 23:06:00,
2013-01-23 18:11:00,17.3,0.6,30.19,NW,323,1.0,2.0,47,0.00,,,0.00,0,LWC V2.00 B2112,2013-01-23 23:11:00,
2013-01-23 18:16:00,17.2,0.5,30.19,NW,323,0.0,0.0,47,0.00,,,0.00,0,LWC V2.00 B2112,2013-01-23 23:16:00,
2013-01-23 18:21:00,17.1,0.8,30.19,NW,323,0.0,0.0,48,0.00,,,0.00,0,LWC V2.00 B2112,2013-01-23 23:21:00,
2013-01-23 18:26:00,17.0,0.7,30.19,NW,323,0.0,1.0,48,0.00,,,0.00,0,LWC V2.00 B2112,2013-01-23 23:26:00,
2013-01-23 18:31:00,16.9,1.1,30.19,NW,323,0.0,3.0,49,0.00,,,0.00,0,LWC V2.00 B2112,2013-01-23 23:31:00,
2013-01-23 18:36:00,16.8,1.0,30.19,NW,323,0.0,0.0,49,0.00,,,0.00,0,LWC V2.00 B2112,2013-01-23 23:36:00,
2013-01-23 18:41:00,16.7,1.8,30.19,NW,323,0.0,0.0,51,0.00,,,0.00,0,LWC V2.00 B2112,2013-01-23 23:41:00,
2013-01-23 18:46:00,16.6,1.7,30.19,NW,323,0.0,0.0,51,0.00,,,0.00,0,LWC V2.00 B2112,2013-01-23 23:46:00,
2013-01-23 18:51:00,16.5,1.6,30.19,NW,323,0.0,0.0,51,0.00,,,0.00,0,LWC V2.00 B2112,2013-01-23 23:51:00,
2013-01-23 18:56:00,16.4,1.5,30.19,NW,323,0.0,0.0,51,0.00,,,0.00,0,LWC V2.00 B2112,2013-01-23 23:56:00,
2013-01-23 19:01:00,16.3,2.2,30.19,NW,323,0.0,0.0,53,0.00,,,0.00,0,LWC V2.00 B2112,2013-01-24 00:01:00,
2013-01-23 19:06:00,16.2,1.7,30.19,NW,323,0.0,0.0,52,0.00,,,0.00,0,LWC V2.00 B2112,2013-01-24 00:06:00,
2013-01-23 19:11:00,16.2,2.1,30.19,NW,323,0.0,0.0,53,0.00,,,0.00,0,LWC V2.00 B2112,2013-01-24 00:11:00,
2013-01-23 19:16:00,16.1,2.8,30.19,NW,323,0.0,0.0,55,0.00,,,0.00,0,LWC V2.00 B2112,2013-01-24 00:16:00,
2013-01-23 19:21:00,16.0,3.5,30.19,NW,323,0.0,0.0,57,0.00,,,0.00,0,LWC V2.00 B2112,2013-01-24 00:21:00,
2013-01-23 19:26:00,15.8,3.3,30.19,NW,323,0.0,0.0,57,0.00,,,0.00,0,LWC V2.00 B2112,2013-01-24 00:26:00,
2013-01-23 19:31:00,15.6,3.9,30.19,NW,323,0.0,0.0,59,0.00,,,0.00,0,LWC V2.00 B2112,2013-01-24 00:31:00,
2013-01-23 19:36:00,15.5,3.4,30.19,NW,323,0.0,0.0,58,0.00,,,0.00,0,LWC V2.00 B2112,2013-01-24 00:36:00,
2013-01-23 19:41:00,15.3,3.6,30.19,NW,323,0.0,0.0,59,0.00,,,0.00,0,LWC V2.00 B2112,2013-01-24 00:41:00,
2013-01-23 19:46:00,15.1,4.1,30.19,NW,323,0.0,0.0,61,0.00,,,0.00,0,LWC V2.00 B2112,2013-01-24 00:46:00,
2013-01-23 19:51:00,15.0,4.4,30.19,NW,323,0.0,0.0,62,0.00,,,0.00,0,LWC V2.00 B2112,2013-01-24 00:51:00,
2013-01-23 19:56:00,14.9,3.9,30.19,NW,323,0.0,0.0,61,0.00,,,0.00,0,LWC V2.00 B2112,2013-01-24 00:56:00,
2013-01-23 20:01:00,14.7,3.4,30.19,NW,323,0.0,0.0,60,0.00,,,0.00,0,LWC V2.00 B2112,2013-01-24 01:01:00,
2013-01-23 20:06:00,14.6,3.6,30.19,NW,323,0.0,0.0,61,0.00,,,0.00,0,LWC V2.00 B2112,2013-01-24 01:06:00,
2013-01-23 20:11:00,14.5,3.9,30.19,NW,323,0.0,0.0,62,0.00,,,0.00,0,LWC V2.00 B2112,2013-01-24 01:11:00,
2013-01-23 20:16:00,14.5,4.2,30.19,NW,323,0.0,0.0,63,0.00,,,0.00,0,LWC V2.00 B2112,2013-01-24 01:16:00,
2013-01-23 20:21:00,14.3,4.7,30.19,NW,323,0.0,0.0,65,0.00,,,0.00,0,LWC V2.00 B2112,2013-01-24 01:21:00,
2013-01-23 20:26:00,14.2,5.0,30.18,NW,323,0.0,0.0,66,0.00,,,0.00,0,LWC V2.00 B2112,2013-01-24 01:26:00,
2013-01-23 20:31:00,14.1,5.2,30.18,NW,323,0.0,0.0,67,0.00,,,0.00,0,LWC V2.00 B2112,2013-01-24 01:31:00,
2013-01-23 20:36:00,13.9,4.3,30.18,NW,323,0.0,0.0,65,0.00,,,0.00,0,LWC V2.00 B2112,2013-01-24 01:36:00,
2013-01-23 20:41:00,13.8,4.6,30.18,NW,323,0.0,0.0,66,0.00,,,0.00,0,LWC V2.00 B2112,2013-01-24 01:41:00,
2013-01-23 20:46:00,13.7,4.5,30.18,NW,323,0.0,0.0,66,0.00,,,0.00,0,LWC V2.00 B2112,2013-01-24 01:46:00,
2013-01-23 20:51:00,13.5,4.0,30.18,NW,323,0.0,0.0,65,0.00,,,0.00,0,LWC V2.00 B2112,2013-01-24 01:51:00,
2013-01-23 20:56:00,13.5,4.6,30.18,NW,323,0.0,0.0,67,0.00,,,0.00,0,LWC V2.00 B2112,2013-01-24 01:56:00,
2013-01-23 21:01:00,13.3,4.4,30.18,NW,323,0.0,0.0,67,0.00,,,0.00,0,LWC V2.00 B2112,2013-01-24 02:01:00,
2013-01-23 21:06:00,13.2,4.3,30.18,NW,323,0.0,0.0,67,0.00,,,0.00,0,LWC V2.00 B2112,2013-01-24 02:06:00,
2013-01-23 21:11:00,13.0,3.8,30.18,NW,323,0.0,0.0,66,0.00,,,0.00,0,LWC V2.00 B2112,2013-01-24 02:11:00,
2013-01-23 21:15:00,12.9,4.4,30.18,NW,323,0.0,0.0,68,0.00,,,0.00,0,LWC V2.00 B2112,2013-01-24 02:15:00,
2013-01-23 21:20:00,12.8,4.6,30.18,NW,323,0.0,0.0,69,0.00,,,0.00,0,LWC V2.00 B2112,2013-01-24 02:20:00,
2013-01-23 21:25:00,12.7,5.1,30.18,NW,323,0.0,0.0,71,0.00,,,0.00,0,LWC V2.00 B2112,2013-01-24 02:25:00,
2013-01-23 21:30:00,12.7,5.4,30.19,NW,323,0.0,0.0,72,0.00,,,0.00,0,LWC V2.00 B2112,2013-01-24 02:30:00,
2013-01-23 21:35:00,12.7,5.7,30.19,NW,323,0.0,0.0,73,0.00,,,0.00,0,LWC V2.00 B2112,2013-01-24 02:35:00,
2013-01-23 21:40:00,12.6,5.9,30.19,NW,323,0.0,0.0,74,0.00,,,0.00,0,LWC V2.00 B2112,2013-01-24 02:40:00,
2013-01-23 21:45:00,12.5,6.1,30.19,NW,323,0.0,0.0,75,0.00,,,0.00,0,LWC V2.00 B2112,2013-01-24 02:45:00,
2013-01-23 21:50:00,12.4,6.0,30.19,NW,323,0.0,0.0,75,0.00,,,0.00,0,LWC V2.00 B2112,2013-01-24 02:50:00,
2013-01-23 21:55:00,12.4,6.0,30.19,NW,323,0.0,0.0,75,0.00,,,0.00,0,LWC V2.00 B2112,2013-01-24 02:55:00,
2013-01-23 22:00:00,12.3,5.9,30.19,NW,323,0.0,0.0,75,0.00,,,0.00,0,LWC V2.00 B2112,2013-01-24 03:00:00,
2013-01-23 22:05:00,12.2,6.1,30.19,NW,323,0.0,0.0,76,0.00,,,0.00,0,LWC V2.00 B2112,2013-01-24 03:05:00,
2013-01-23 22:10:00,12.2,6.1,30.19,NW,323,0.0,0.0,76,0.00,,,0.00,0,LWC V2.00 B2112,2013-01-24 03:10:00,
2013-01-23 22:15:00,12.1,6.0,30.19,NW,323,0.0,0.0,76,0.00,,,0.00,0,LWC V2.00 B2112,2013-01-24 03:15:00,
2013-01-23 22:20:00,12.0,6.2,30.19,NW,323,0.0,0.0,77,0.00,,,0.00,0,LWC V2.00 B2112,2013-01-24 03:20:00,
2013-01-23 22:25:00,12.0,6.2,30.19,NW,323,0.0,0.0,77,0.00,,,0.00,0,LWC V2.00 B2112,2013-01-24 03:25:00,
2013-01-23 22:30:00,11.9,6.1,30.18,NW,323,0.0,0.0,77,0.00,,,0.00,0,LWC V2.00 B2112,2013-01-24 03:30:00,
2013-01-23 22:35:00,11.9,6.1,30.19,NW,323,0.0,0.0,77,0.00,,,0.00,0,LWC V2.00 B2112,2013-01-24 03:35:00,
2013-01-23 22:40:00,11.8,5.7,30.19,NW,323,0.0,0.0,76,0.00,,,0.00,0,LWC V2.00 B2112,2013-01-24 03:40:00,
2013-01-23 22:45:00,11.8,5.7,30.19,NW,323,0.0,0.0,76,0.00,,,0.00,0,LWC V2.00 B2112,2013-01-24 03:45:00,
2013-01-23 22:50:00,11.7,5.9,30.18,NW,323,0.0,0.0,77,0.00,,,0.00,0,LWC V2.00 B2112,2013-01-24 03:50:00,
2013-01-23 22:55:00,11.8,6.3,30.18,NW,323,0.0,0.0,78,0.00,,,0.00,0,LWC V2.00 B2112,2013-01-24 03:55:00,
2013-01-23 23:00:00,11.8,6.0,30.18,NW,323,0.0,0.0,77,0.00,,,0.00,0,LWC V2.00 B2112,2013-01-24 04:00:00,
2013-01-23 23:05:00,11.9,6.1,30.18,NW,323,0.0,0.0,77,0.00,,,0.00,0,LWC V2.00 B2112,2013-01-24 04:05:00,
2013-01-23 23:10:00,11.9,6.1,30.18,NW,323,0.0,0.0,77,0.00,,,0.00,0,LWC V2.00 B2112,2013-01-24 04:10:00,
2013-01-23 23:15:00,11.9,6.4,30.18,NW,323,0.0,0.0,78,0.00,,,0.00,0,LWC V2.00 B2112,2013-01-24 04:15:00,
2013-01-23 23:20:00,11.8,6.3,30.18,NW,323,0.0,0.0,78,0.00,,,0.00,0,LWC V2.00 B2112,2013-01-24 04:20:00,
2013-01-23 23:25:00,12.0,6.5,30.18,NW,323,0.0,0.0,78,0.00,,,0.00,0,LWC V2.00 B2112,2013-01-24 04:25:00,
2013-01-23 23:30:00,12.2,6.7,30.18,NW,323,0.0,0.0,78,0.00,,,0.00,0,LWC V2.00 B2112,2013-01-24 04:30:00,
2013-01-23 23:35:00,12.3,7.1,30.18,NW,323,0.0,0.0,79,0.00,,,0.00,0,LWC V2.00 B2112,2013-01-24 04:35:00,
2013-01-23 23:40:00,12.4,7.4,30.18,NW,323,0.0,0.0,80,0.00,,,0.00,0,LWC V2.00 B2112,2013-01-24 04:40:00,
2013-01-23 23:45:00,12.6,7.6,30.17,NW,323,0.0,0.0,80,0.00,,,0.00,0,LWC V2.00 B2112,2013-01-24 04:45:00,
2013-01-23 23:50:00,12.7,7.7,30.17,NW,323,0.0,0.0,80,0.00,,,0.00,0,LWC V2.00 B2112,2013-01-24 04:50:00,
2013-01-23 23:55:00,12.7,7.7,30.17,NW,323,0.0,0.0,80,0.00,,,0.00,0,LWC V2.00 B2112,2013-01-24 04:55:00,